Year,Month,Day,Hour,Minute,Value (Times are PST for temperature in C)
2012,06,20,00,00,12.80
2012,06,20,00,01,12.80
2012,06,20,00,02,12.80
2012,06,20,00,03,12.80
2012,06,20,00,04,12.80
2012,06,20,00,05,12.80
2012,06,20,00,06,12.80
2012,06,20,00,07,12.70
2012,06,20,00,08,12.70
2012,06,20,00,09,12.70
2012,06,20,00,10,12.70
2012,06,20,00,11,12.70
2012,06,20,00,12,12.60
2012,06,20,00,13,12.60
2012,06,20,00,14,12.60
2012,06,20,00,15,12.60
2012,06,20,00,16,12.60
2012,06,20,00,17,12.60
2012,06,20,00,18,12.60
2012,06,20,00,19,12.50
2012,06,20,00,20,12.50
2012,06,20,00,21,12.50
2012,06,20,00,22,12.40
2012,06,20,00,23,12.40
2012,06,20,00,24,12.40
2012,06,20,00,25,12.40
2012,06,20,00,26,12.40
2012,06,20,00,27,12.40
2012,06,20,00,28,12.40
2012,06,20,00,29,12.30
2012,06,20,00,30,12.30
2012,06,20,00,31,12.30
2012,06,20,00,32,12.30
2012,06,20,00,33,12.30
2012,06,20,00,34,12.30
2012,06,20,00,35,12.30
2012,06,20,00,36,12.20
2012,06,20,00,37,12.20
2012,06,20,00,38,12.20
2012,06,20,00,39,12.20
2012,06,20,00,40,12.20
2012,06,20,00,41,12.10
2012,06,20,00,42,12.10
2012,06,20,00,43,12.10
2012,06,20,00,44,12.10
2012,06,20,00,45,12.10
2012,06,20,00,46,12.10
2012,06,20,00,47,12.10
2012,06,20,00,48,12.10
2012,06,20,00,49,12.00
2012,06,20,00,50,12.00
2012,06,20,00,51,12.00
2012,06,20,00,52,12.00
2012,06,20,00,53,11.90
2012,06,20,00,54,11.90
2012,06,20,00,55,11.90
2012,06,20,00,56,11.90
2012,06,20,00,57,11.90
2012,06,20,00,58,11.80
2012,06,20,00,59,11.80
2012,06,20,01,00,11.80
2012,06,20,01,01,11.80
2012,06,20,01,02,11.80
2012,06,20,01,03,11.80
2012,06,20,01,04,11.70
2012,06,20,01,05,11.70
2012,06,20,01,06,11.70
2012,06,20,01,07,11.70
2012,06,20,01,08,11.60
2012,06,20,01,09,11.60
2012,06,20,01,10,11.60
2012,06,20,01,11,11.60
2012,06,20,01,12,11.60
2012,06,20,01,13,11.50
2012,06,20,01,14,11.50
2012,06,20,01,15,11.50
2012,06,20,01,16,11.40
2012,06,20,01,17,11.40
2012,06,20,01,18,11.40
2012,06,20,01,19,11.40
2012,06,20,01,20,11.40
2012,06,20,01,21,11.40
2012,06,20,01,22,11.40
2012,06,20,01,23,11.40
2012,06,20,01,24,11.40
2012,06,20,01,25,11.30
2012,06,20,01,26,11.30
2012,06,20,01,27,11.30
2012,06,20,01,28,11.30
2012,06,20,01,29,11.30
2012,06,20,01,30,11.30
2012,06,20,01,31,11.30
2012,06,20,01,32,11.20
2012,06,20,01,33,11.20
2012,06,20,01,34,11.20
2012,06,20,01,35,11.20
2012,06,20,01,36,11.20
2012,06,20,01,37,11.20
2012,06,20,01,38,11.20
2012,06,20,01,39,11.20
2012,06,20,01,40,11.20
2012,06,20,01,41,11.20
2012,06,20,01,42,11.20
2012,06,20,01,43,11.20
2012,06,20,01,44,11.20
2012,06,20,01,45,11.20
2012,06,20,01,46,11.20
2012,06,20,01,47,11.20
2012,06,20,01,48,11.20
2012,06,20,01,49,11.10
2012,06,20,01,50,11.10
2012,06,20,01,51,11.10
2012,06,20,01,52,11.10
2012,06,20,01,53,11.10
2012,06,20,01,54,11.00
2012,06,20,01,55,11.00
2012,06,20,01,56,10.90
2012,06,20,01,57,10.90
2012,06,20,01,58,10.90
2012,06,20,01,59,10.80
2012,06,20,02,00,10.80
2012,06,20,02,01,10.80
2012,06,20,02,02,10.70
2012,06,20,02,03,10.70
2012,06,20,02,04,10.70
2012,06,20,02,05,10.70
2012,06,20,02,06,10.60
2012,06,20,02,07,10.60
2012,06,20,02,08,10.60
2012,06,20,02,09,10.60
2012,06,20,02,10,10.60
2012,06,20,02,11,10.50
2012,06,20,02,12,10.50
2012,06,20,02,13,10.40
2012,06,20,02,14,10.40
2012,06,20,02,15,10.40
2012,06,20,02,16,10.40
2012,06,20,02,17,10.40
2012,06,20,02,18,10.30
2012,06,20,02,19,10.30
2012,06,20,02,20,10.30
2012,06,20,02,21,10.30
2012,06,20,02,22,10.30
2012,06,20,02,23,10.30
2012,06,20,02,24,10.30
2012,06,20,02,25,10.30
2012,06,20,02,26,10.30
2012,06,20,02,27,10.30
2012,06,20,02,28,10.30
2012,06,20,02,29,10.20
2012,06,20,02,30,10.20
2012,06,20,02,31,10.20
2012,06,20,02,32,10.20
2012,06,20,02,33,10.20
2012,06,20,02,34,10.20
2012,06,20,02,35,10.20
2012,06,20,02,36,10.20
2012,06,20,02,37,10.20
2012,06,20,02,38,10.10
2012,06,20,02,39,10.10
2012,06,20,02,40,10.10
2012,06,20,02,41,10.10
2012,06,20,02,42,10.10
2012,06,20,02,43,10.10
2012,06,20,02,44,10.10
2012,06,20,02,45,10.10
2012,06,20,02,46,10.10
2012,06,20,02,47,10.10
2012,06,20,02,48,10.10
2012,06,20,02,49,10.10
2012,06,20,02,50,10.10
2012,06,20,02,51,10.10
2012,06,20,02,52,10.10
2012,06,20,02,53,10.10
2012,06,20,02,54,10.10
2012,06,20,02,55,10.10
2012,06,20,02,56,10.10
2012,06,20,02,57,10.10
2012,06,20,02,58,10.10
2012,06,20,02,59,10.10
2012,06,20,03,00,10.10
2012,06,20,03,01,10.00
2012,06,20,03,02,10.00
2012,06,20,03,03,10.00
2012,06,20,03,04,10.00
2012,06,20,03,05,10.00
2012,06,20,03,06,10.00
2012,06,20,03,07,10.00
2012,06,20,03,08,10.00
2012,06,20,03,09,10.00
2012,06,20,03,10,10.00
2012,06,20,03,11,10.10
2012,06,20,03,12,10.10
2012,06,20,03,13,10.10
2012,06,20,03,14,10.10
2012,06,20,03,15,10.10
2012,06,20,03,16,10.10
2012,06,20,03,17,10.10
2012,06,20,03,18,10.10
2012,06,20,03,19,10.10
2012,06,20,03,20,10.10
2012,06,20,03,21,10.00
2012,06,20,03,22,10.00
2012,06,20,03,23,10.00
2012,06,20,03,24,10.00
2012,06,20,03,25,10.00
2012,06,20,03,26,10.00
2012,06,20,03,27,9.90
2012,06,20,03,28,9.90
2012,06,20,03,29,9.90
2012,06,20,03,30,9.90
2012,06,20,03,31,9.80
2012,06,20,03,32,9.80
2012,06,20,03,33,9.80
2012,06,20,03,34,9.80
2012,06,20,03,35,9.80
2012,06,20,03,36,9.80
2012,06,20,03,37,9.80
2012,06,20,03,38,9.80
2012,06,20,03,39,9.80
2012,06,20,03,40,9.70
2012,06,20,03,41,9.70
2012,06,20,03,42,9.70
2012,06,20,03,43,9.70
2012,06,20,03,44,9.70
2012,06,20,03,45,9.70
2012,06,20,03,46,9.70
2012,06,20,03,47,9.70
2012,06,20,03,48,9.70
2012,06,20,03,49,9.70
2012,06,20,03,50,9.70
2012,06,20,03,51,9.70
2012,06,20,03,52,9.60
2012,06,20,03,53,9.60
2012,06,20,03,54,9.60
2012,06,20,03,55,9.60
2012,06,20,03,56,9.60
2012,06,20,03,57,9.60
2012,06,20,03,58,9.50
2012,06,20,03,59,9.50
2012,06,20,04,00,9.50
2012,06,20,04,01,9.50
2012,06,20,04,02,9.40
2012,06,20,04,03,9.40
2012,06,20,04,04,9.40
2012,06,20,04,05,9.40
2012,06,20,04,06,9.40
2012,06,20,04,07,9.30
2012,06,20,04,08,9.30
2012,06,20,04,09,9.30
2012,06,20,04,10,9.30
2012,06,20,04,11,9.30
2012,06,20,04,12,9.30
2012,06,20,04,13,9.20
2012,06,20,04,14,9.20
2012,06,20,04,15,9.20
2012,06,20,04,16,9.20
2012,06,20,04,17,9.20
2012,06,20,04,18,9.10
2012,06,20,04,19,9.10
2012,06,20,04,20,9.10
2012,06,20,04,21,9.10
2012,06,20,04,22,9.10
2012,06,20,04,23,9.10
2012,06,20,04,24,9.10
2012,06,20,04,25,9.10
2012,06,20,04,26,9.10
2012,06,20,04,27,9.10
2012,06,20,04,28,9.10
2012,06,20,04,29,9.10
2012,06,20,04,30,9.10
2012,06,20,04,31,9.10
2012,06,20,04,32,9.10
2012,06,20,04,33,9.10
2012,06,20,04,34,9.10
2012,06,20,04,35,9.10
2012,06,20,04,36,9.10
2012,06,20,04,37,9.10
2012,06,20,04,38,9.10
2012,06,20,04,39,9.10
2012,06,20,04,40,9.10
2012,06,20,04,41,9.10
2012,06,20,04,42,9.10
2012,06,20,04,43,9.10
2012,06,20,04,44,9.10
2012,06,20,04,45,9.00
2012,06,20,04,46,9.00
2012,06,20,04,47,9.00
2012,06,20,04,48,9.00
2012,06,20,04,49,9.00
2012,06,20,04,50,8.90
2012,06,20,04,51,8.90
2012,06,20,04,52,8.90
2012,06,20,04,53,8.90
2012,06,20,04,54,8.90
2012,06,20,04,55,8.90
2012,06,20,04,56,8.80
2012,06,20,04,57,8.80
2012,06,20,04,58,8.80
2012,06,20,04,59,8.80
2012,06,20,05,00,8.90
2012,06,20,05,01,8.90
2012,06,20,05,02,8.90
2012,06,20,05,03,8.90
2012,06,20,05,04,8.90
2012,06,20,05,05,8.90
2012,06,20,05,06,8.90
2012,06,20,05,07,8.90
2012,06,20,05,08,8.90
2012,06,20,05,09,9.00
2012,06,20,05,10,9.00
2012,06,20,05,11,9.00
2012,06,20,05,12,9.00
2012,06,20,05,13,9.00
2012,06,20,05,14,9.00
2012,06,20,05,15,9.10
2012,06,20,05,16,9.10
2012,06,20,05,17,9.10
2012,06,20,05,18,9.10
2012,06,20,05,19,9.10
2012,06,20,05,20,9.10
2012,06,20,05,21,9.10
2012,06,20,05,22,9.10
2012,06,20,05,23,9.10
2012,06,20,05,24,9.00
2012,06,20,05,25,9.10
2012,06,20,05,26,9.00
2012,06,20,05,27,9.00
2012,06,20,05,28,9.00
2012,06,20,05,29,9.00
2012,06,20,05,30,9.00
2012,06,20,05,31,9.00
2012,06,20,05,32,8.90
2012,06,20,05,33,8.90
2012,06,20,05,34,8.90
2012,06,20,05,35,8.90
2012,06,20,05,36,8.90
2012,06,20,05,37,8.90
2012,06,20,05,38,8.90
2012,06,20,05,39,8.90
2012,06,20,05,40,8.90
2012,06,20,05,41,8.90
2012,06,20,05,42,8.90
2012,06,20,05,43,8.90
2012,06,20,05,44,8.90
2012,06,20,05,45,8.90
2012,06,20,05,46,8.90
2012,06,20,05,47,8.90
2012,06,20,05,48,8.90
2012,06,20,05,49,9.00
2012,06,20,05,50,9.00
2012,06,20,05,51,9.00
2012,06,20,05,52,9.10
2012,06,20,05,53,9.10
2012,06,20,05,54,9.10
2012,06,20,05,55,9.10
2012,06,20,05,56,9.20
2012,06,20,05,57,9.20
2012,06,20,05,58,9.20
2012,06,20,05,59,9.30
2012,06,20,06,00,9.30
2012,06,20,06,01,9.40
2012,06,20,06,02,9.40
2012,06,20,06,03,9.40
2012,06,20,06,04,9.50
2012,06,20,06,05,9.50
2012,06,20,06,06,9.60
2012,06,20,06,07,9.60
2012,06,20,06,08,9.60
2012,06,20,06,09,9.70
2012,06,20,06,10,9.70
2012,06,20,06,11,9.70
2012,06,20,06,12,9.80
2012,06,20,06,13,9.80
2012,06,20,06,14,9.80
2012,06,20,06,15,9.80
2012,06,20,06,16,9.90
2012,06,20,06,17,9.90
2012,06,20,06,18,9.90
2012,06,20,06,19,10.00
2012,06,20,06,20,10.00
2012,06,20,06,21,10.00
2012,06,20,06,22,10.10
2012,06,20,06,23,10.10
2012,06,20,06,24,10.20
2012,06,20,06,25,10.20
2012,06,20,06,26,10.20
2012,06,20,06,27,10.20
2012,06,20,06,28,10.30
2012,06,20,06,29,10.30
2012,06,20,06,30,10.30
2012,06,20,06,31,10.40
2012,06,20,06,32,10.40
2012,06,20,06,33,10.40
2012,06,20,06,34,10.50
2012,06,20,06,35,10.50
2012,06,20,06,36,10.50
2012,06,20,06,37,10.50
2012,06,20,06,38,10.60
2012,06,20,06,39,10.60
2012,06,20,06,40,10.60
2012,06,20,06,41,10.60
2012,06,20,06,42,10.60
2012,06,20,06,43,10.60
2012,06,20,06,44,10.60
2012,06,20,06,45,10.60
2012,06,20,06,46,10.70
2012,06,20,06,47,10.70
2012,06,20,06,48,10.70
2012,06,20,06,49,10.70
2012,06,20,06,50,10.80
2012,06,20,06,51,10.80
2012,06,20,06,52,10.80
2012,06,20,06,53,10.90
2012,06,20,06,54,10.90
2012,06,20,06,55,10.90
2012,06,20,06,56,11.00
2012,06,20,06,57,11.00
2012,06,20,06,58,11.10
2012,06,20,06,59,11.10
2012,06,20,07,00,11.10
2012,06,20,07,01,11.20
2012,06,20,07,02,11.20
2012,06,20,07,03,11.30
2012,06,20,07,04,11.30
2012,06,20,07,05,11.40
2012,06,20,07,06,11.40
2012,06,20,07,07,11.50
2012,06,20,07,08,11.50
2012,06,20,07,09,11.60
2012,06,20,07,10,11.60
2012,06,20,07,11,11.70
2012,06,20,07,12,11.70
2012,06,20,07,13,11.70
2012,06,20,07,14,11.80
2012,06,20,07,15,11.80
2012,06,20,07,16,11.90
2012,06,20,07,17,11.90
2012,06,20,07,18,12.00
2012,06,20,07,19,12.10
2012,06,20,07,20,12.10
2012,06,20,07,21,12.20
2012,06,20,07,22,12.20
2012,06,20,07,23,12.30
2012,06,20,07,24,12.30
2012,06,20,07,25,12.30
2012,06,20,07,26,12.40
2012,06,20,07,27,12.40
2012,06,20,07,28,12.50
2012,06,20,07,29,12.50
2012,06,20,07,30,12.50
2012,06,20,07,31,12.60
2012,06,20,07,32,12.60
2012,06,20,07,33,12.70
2012,06,20,07,34,12.70
2012,06,20,07,35,12.70
2012,06,20,07,36,12.80
2012,06,20,07,37,12.80
2012,06,20,07,38,12.90
2012,06,20,07,39,12.90
2012,06,20,07,40,13.00
2012,06,20,07,41,13.00
2012,06,20,07,42,13.10
2012,06,20,07,43,13.20
2012,06,20,07,44,13.20
2012,06,20,07,45,13.30
2012,06,20,07,46,13.30
2012,06,20,07,47,13.30
2012,06,20,07,48,13.40
2012,06,20,07,49,13.50
2012,06,20,07,50,13.50
2012,06,20,07,51,13.60
2012,06,20,07,52,13.70
2012,06,20,07,53,13.70
2012,06,20,07,54,13.80
2012,06,20,07,55,13.80
2012,06,20,07,56,13.90
2012,06,20,07,57,13.90
2012,06,20,07,58,14.00
2012,06,20,07,59,14.00
2012,06,20,08,00,14.10
2012,06,20,08,01,14.10
2012,06,20,08,02,14.10
2012,06,20,08,03,14.10
2012,06,20,08,04,14.10
2012,06,20,08,05,14.10
2012,06,20,08,06,14.10
2012,06,20,08,07,14.10
2012,06,20,08,08,14.10
2012,06,20,08,09,14.10
2012,06,20,08,10,14.10
2012,06,20,08,11,14.10
2012,06,20,08,12,14.20
2012,06,20,08,13,14.20
2012,06,20,08,14,14.20
2012,06,20,08,15,14.20
2012,06,20,08,16,14.20
2012,06,20,08,17,14.20
2012,06,20,08,18,14.20
2012,06,20,08,19,14.30
2012,06,20,08,20,14.30
2012,06,20,08,21,14.30
2012,06,20,08,22,14.40
2012,06,20,08,23,14.40
2012,06,20,08,24,14.40
2012,06,20,08,25,14.40
2012,06,20,08,26,14.40
2012,06,20,08,27,14.40
2012,06,20,08,28,14.40
2012,06,20,08,29,14.40
2012,06,20,08,30,14.50
2012,06,20,08,31,14.50
2012,06,20,08,32,14.60
2012,06,20,08,33,14.60
2012,06,20,08,34,14.60
2012,06,20,08,35,14.70
2012,06,20,08,36,14.70
2012,06,20,08,37,14.70
2012,06,20,08,38,14.80
2012,06,20,08,39,14.80
2012,06,20,08,40,14.80
2012,06,20,08,41,14.80
2012,06,20,08,42,14.80
2012,06,20,08,43,14.90
2012,06,20,08,44,14.90
2012,06,20,08,45,15.00
2012,06,20,08,46,15.10
2012,06,20,08,47,15.10
2012,06,20,08,48,15.20
2012,06,20,08,49,15.30
2012,06,20,08,50,15.40
2012,06,20,08,51,15.40
2012,06,20,08,52,15.50
2012,06,20,08,53,15.60
2012,06,20,08,54,15.60
2012,06,20,08,55,15.70
2012,06,20,08,56,15.70
2012,06,20,08,57,15.70
2012,06,20,08,58,15.60
2012,06,20,08,59,15.60
2012,06,20,09,00,15.60
2012,06,20,09,01,15.60
2012,06,20,09,02,15.70
2012,06,20,09,03,15.70
2012,06,20,09,04,15.70
2012,06,20,09,05,15.70
2012,06,20,09,06,15.70
2012,06,20,09,07,15.70
2012,06,20,09,08,15.60
2012,06,20,09,09,15.60
2012,06,20,09,10,15.60
2012,06,20,09,11,15.50
2012,06,20,09,12,15.50
2012,06,20,09,13,15.50
2012,06,20,09,14,15.50
2012,06,20,09,15,15.50
2012,06,20,09,16,15.50
2012,06,20,09,17,15.60
2012,06,20,09,18,15.60
2012,06,20,09,19,15.70
2012,06,20,09,20,15.70
2012,06,20,09,21,15.80
2012,06,20,09,22,15.80
2012,06,20,09,23,15.80
2012,06,20,09,24,15.80
2012,06,20,09,25,15.80
2012,06,20,09,26,15.90
2012,06,20,09,27,15.90
2012,06,20,09,28,16.00
2012,06,20,09,29,16.00
2012,06,20,09,30,16.00
2012,06,20,09,31,16.10
2012,06,20,09,32,16.10
2012,06,20,09,33,16.20
2012,06,20,09,34,16.20
2012,06,20,09,35,16.20
2012,06,20,09,36,16.20
2012,06,20,09,37,16.20
2012,06,20,09,38,16.20
2012,06,20,09,39,16.20
2012,06,20,09,40,16.20
2012,06,20,09,41,16.20
2012,06,20,09,42,16.20
2012,06,20,09,43,16.20
2012,06,20,09,44,16.20
2012,06,20,09,45,16.20
2012,06,20,09,46,16.20
2012,06,20,09,47,16.30
2012,06,20,09,48,16.30
2012,06,20,09,49,16.20
2012,06,20,09,50,16.20
2012,06,20,09,51,16.20
2012,06,20,09,52,16.20
2012,06,20,09,53,16.30
2012,06,20,09,54,16.30
2012,06,20,09,55,16.30
2012,06,20,09,56,16.30
2012,06,20,09,57,16.40
2012,06,20,09,58,16.40
2012,06,20,09,59,16.40
2012,06,20,10,00,16.50
2012,06,20,10,01,16.50
2012,06,20,10,02,16.60
2012,06,20,10,03,16.60
2012,06,20,10,04,16.70
2012,06,20,10,05,16.80
2012,06,20,10,06,16.80
2012,06,20,10,07,16.70
2012,06,20,10,08,16.70
2012,06,20,10,09,16.70
2012,06,20,10,10,16.70
2012,06,20,10,11,16.80
2012,06,20,10,12,16.80
2012,06,20,10,13,16.80
2012,06,20,10,14,16.80
2012,06,20,10,15,16.80
2012,06,20,10,16,16.90
2012,06,20,10,17,16.90
2012,06,20,10,18,16.90
2012,06,20,10,19,17.00
2012,06,20,10,20,17.00
2012,06,20,10,21,17.10
2012,06,20,10,22,17.20
2012,06,20,10,23,17.30
2012,06,20,10,24,17.30
2012,06,20,10,25,17.40
2012,06,20,10,26,17.40
2012,06,20,10,27,17.50
2012,06,20,10,28,17.50
2012,06,20,10,29,17.50
2012,06,20,10,30,17.40
2012,06,20,10,31,17.40
2012,06,20,10,32,17.30
2012,06,20,10,33,17.30
2012,06,20,10,34,17.20
2012,06,20,10,35,17.20
2012,06,20,10,36,17.10
2012,06,20,10,37,17.10
2012,06,20,10,38,17.10
2012,06,20,10,39,17.10
2012,06,20,10,40,17.10
2012,06,20,10,41,17.10
2012,06,20,10,42,17.10
2012,06,20,10,43,17.10
2012,06,20,10,44,17.10
2012,06,20,10,45,17.10
2012,06,20,10,46,17.10
2012,06,20,10,47,17.20
2012,06,20,10,48,17.20
2012,06,20,10,49,17.30
2012,06,20,10,50,17.40
2012,06,20,10,51,17.40
2012,06,20,10,52,17.50
2012,06,20,10,53,17.50
2012,06,20,10,54,17.60
2012,06,20,10,55,17.60
2012,06,20,10,56,17.60
2012,06,20,10,57,17.60
2012,06,20,10,58,17.70
2012,06,20,10,59,17.70
2012,06,20,11,00,17.70
2012,06,20,11,01,17.70
2012,06,20,11,02,17.70
2012,06,20,11,03,17.60
2012,06,20,11,04,17.60
2012,06,20,11,05,17.60
2012,06,20,11,06,17.50
2012,06,20,11,07,17.50
2012,06,20,11,08,17.50
2012,06,20,11,09,17.40
2012,06,20,11,10,17.40
2012,06,20,11,11,17.40
2012,06,20,11,12,17.40
2012,06,20,11,13,17.40
2012,06,20,11,14,17.40
2012,06,20,11,15,17.40
2012,06,20,11,16,17.40
2012,06,20,11,17,17.50
2012,06,20,11,18,17.50
2012,06,20,11,19,17.50
2012,06,20,11,20,17.50
2012,06,20,11,21,17.60
2012,06,20,11,22,17.60
2012,06,20,11,23,17.60
2012,06,20,11,24,17.60
2012,06,20,11,25,17.70
2012,06,20,11,26,17.80
2012,06,20,11,27,17.90
2012,06,20,11,28,17.90
2012,06,20,11,29,18.00
2012,06,20,11,30,18.00
2012,06,20,11,31,18.00
2012,06,20,11,32,18.00
2012,06,20,11,33,18.00
2012,06,20,11,34,18.00
2012,06,20,11,35,17.90
2012,06,20,11,36,17.90
2012,06,20,11,37,17.80
2012,06,20,11,38,17.80
2012,06,20,11,39,17.70
2012,06,20,11,40,17.70
2012,06,20,11,41,17.70
2012,06,20,11,42,17.70
2012,06,20,11,43,17.70
2012,06,20,11,44,17.70
2012,06,20,11,45,17.80
2012,06,20,11,46,17.80
2012,06,20,11,47,17.80
2012,06,20,11,48,17.80
2012,06,20,11,49,17.90
2012,06,20,11,50,18.00
2012,06,20,11,51,18.00
2012,06,20,11,52,18.00
2012,06,20,11,53,18.00
2012,06,20,11,54,18.00
2012,06,20,11,55,18.00
2012,06,20,11,56,18.00
2012,06,20,11,57,18.00
2012,06,20,11,58,18.10
2012,06,20,11,59,18.10
2012,06,20,12,00,18.10
2012,06,20,12,01,18.10
2012,06,20,12,02,18.20
2012,06,20,12,03,18.20
2012,06,20,12,04,18.30
2012,06,20,12,05,18.30
2012,06,20,12,06,18.30
2012,06,20,12,07,18.30
2012,06,20,12,08,18.30
2012,06,20,12,09,18.30
2012,06,20,12,10,18.30
2012,06,20,12,11,18.40
2012,06,20,12,12,18.50
2012,06,20,12,13,18.50
2012,06,20,12,14,18.60
2012,06,20,12,15,18.70
2012,06,20,12,16,18.70
2012,06,20,12,17,18.80
2012,06,20,12,18,18.90
2012,06,20,12,19,19.00
2012,06,20,12,20,18.90
2012,06,20,12,21,18.90
2012,06,20,12,22,18.80
2012,06,20,12,23,18.80
2012,06,20,12,24,18.80
2012,06,20,12,25,18.80
2012,06,20,12,26,18.80
2012,06,20,12,27,18.90
2012,06,20,12,28,18.90
2012,06,20,12,29,18.90
2012,06,20,12,30,18.90
2012,06,20,12,31,18.90
2012,06,20,12,32,18.80
2012,06,20,12,33,18.80
2012,06,20,12,34,18.70
2012,06,20,12,35,18.60
2012,06,20,12,36,18.60
2012,06,20,12,37,18.60
2012,06,20,12,38,18.60
2012,06,20,12,39,18.60
2012,06,20,12,40,18.70
2012,06,20,12,41,18.80
2012,06,20,12,42,18.90
2012,06,20,12,43,18.90
2012,06,20,12,44,18.90
2012,06,20,12,45,18.90
2012,06,20,12,46,18.90
2012,06,20,12,47,18.90
2012,06,20,12,48,18.90
2012,06,20,12,49,19.00
2012,06,20,12,50,19.10
2012,06,20,12,51,19.10
2012,06,20,12,52,19.20
2012,06,20,12,53,19.20
2012,06,20,12,54,19.20
2012,06,20,12,55,19.10
2012,06,20,12,56,19.10
2012,06,20,12,57,19.00
2012,06,20,12,58,18.90
2012,06,20,12,59,18.90
2012,06,20,13,00,18.90
2012,06,20,13,01,18.90
2012,06,20,13,02,19.00
2012,06,20,13,03,19.10
2012,06,20,13,04,19.10
2012,06,20,13,05,19.10
2012,06,20,13,06,19.10
2012,06,20,13,07,19.20
2012,06,20,13,08,19.20
2012,06,20,13,09,19.20
2012,06,20,13,10,19.20
2012,06,20,13,11,19.20
2012,06,20,13,12,19.30
2012,06,20,13,13,19.30
2012,06,20,13,14,19.30
2012,06,20,13,15,19.30
2012,06,20,13,16,19.40
2012,06,20,13,17,19.40
2012,06,20,13,18,19.40
2012,06,20,13,19,19.40
2012,06,20,13,20,19.40
2012,06,20,13,21,19.30
2012,06,20,13,22,19.30
2012,06,20,13,23,19.30
2012,06,20,13,24,19.30
2012,06,20,13,25,19.30
2012,06,20,13,26,19.40
2012,06,20,13,27,19.40
2012,06,20,13,28,19.40
2012,06,20,13,29,19.40
2012,06,20,13,30,19.40
2012,06,20,13,31,19.40
2012,06,20,13,32,19.40
2012,06,20,13,33,19.50
2012,06,20,13,34,19.50
2012,06,20,13,35,19.60
2012,06,20,13,36,19.60
2012,06,20,13,37,19.70
2012,06,20,13,38,19.70
2012,06,20,13,39,19.60
2012,06,20,13,40,19.60
2012,06,20,13,41,19.60
2012,06,20,13,42,19.70
2012,06,20,13,43,19.70
2012,06,20,13,44,19.80
2012,06,20,13,45,19.90
2012,06,20,13,46,19.90
2012,06,20,13,47,19.90
2012,06,20,13,48,19.90
2012,06,20,13,49,20.00
2012,06,20,13,50,20.00
2012,06,20,13,51,19.90
2012,06,20,13,52,19.90
2012,06,20,13,53,19.80
2012,06,20,13,54,19.80
2012,06,20,13,55,19.70
2012,06,20,13,56,19.60
2012,06,20,13,57,19.60
2012,06,20,13,58,19.60
2012,06,20,13,59,19.70
2012,06,20,14,00,19.70
2012,06,20,14,01,19.80
2012,06,20,14,02,19.90
2012,06,20,14,03,20.10
2012,06,20,14,04,20.10
2012,06,20,14,05,20.20
2012,06,20,14,06,20.20
2012,06,20,14,07,20.20
2012,06,20,14,08,20.10
2012,06,20,14,09,20.10
2012,06,20,14,10,20.10
2012,06,20,14,11,20.00
2012,06,20,14,12,20.00
2012,06,20,14,13,19.90
2012,06,20,14,14,19.90
2012,06,20,14,15,20.00
2012,06,20,14,16,20.00
2012,06,20,14,17,20.10
2012,06,20,14,18,20.20
2012,06,20,14,19,20.20
2012,06,20,14,20,20.30
2012,06,20,14,21,20.30
2012,06,20,14,22,20.30
2012,06,20,14,23,20.30
2012,06,20,14,24,20.20
2012,06,20,14,25,20.20
2012,06,20,14,26,20.20
2012,06,20,14,27,20.20
2012,06,20,14,28,20.20
2012,06,20,14,29,20.20
2012,06,20,14,30,20.20
2012,06,20,14,31,20.20
2012,06,20,14,32,20.30
2012,06,20,14,33,20.30
2012,06,20,14,34,20.30
2012,06,20,14,35,20.30
2012,06,20,14,36,20.40
2012,06,20,14,37,20.40
2012,06,20,14,38,20.30
2012,06,20,14,39,20.30
2012,06,20,14,40,20.30
2012,06,20,14,41,20.30
2012,06,20,14,42,20.30
2012,06,20,14,43,20.30
2012,06,20,14,44,20.40
2012,06,20,14,45,20.40
2012,06,20,14,46,20.40
2012,06,20,14,47,20.40
2012,06,20,14,48,20.50
2012,06,20,14,49,20.40
2012,06,20,14,50,20.40
2012,06,20,14,51,20.40
2012,06,20,14,52,20.50
2012,06,20,14,53,20.50
2012,06,20,14,54,20.60
2012,06,20,14,55,20.60
2012,06,20,14,56,20.70
2012,06,20,14,57,20.80
2012,06,20,14,58,20.90
2012,06,20,14,59,20.90
2012,06,20,15,00,20.80
2012,06,20,15,01,20.80
2012,06,20,15,02,20.70
2012,06,20,15,03,20.60
2012,06,20,15,04,20.40
2012,06,20,15,05,20.30
2012,06,20,15,06,20.20
2012,06,20,15,07,20.10
2012,06,20,15,08,20.10
2012,06,20,15,09,20.00
2012,06,20,15,10,19.90
2012,06,20,15,11,19.90
2012,06,20,15,12,19.80
2012,06,20,15,13,19.70
2012,06,20,15,14,19.60
2012,06,20,15,15,19.60
2012,06,20,15,16,19.60
2012,06,20,15,17,19.50
2012,06,20,15,18,19.50
2012,06,20,15,19,19.50
2012,06,20,15,20,19.50
2012,06,20,15,21,19.60
2012,06,20,15,22,19.60
2012,06,20,15,23,19.60
2012,06,20,15,24,19.70
2012,06,20,15,25,19.60
2012,06,20,15,26,19.60
2012,06,20,15,27,19.60
2012,06,20,15,28,19.60
2012,06,20,15,29,19.60
2012,06,20,15,30,19.60
2012,06,20,15,31,19.50
2012,06,20,15,32,19.50
2012,06,20,15,33,19.60
2012,06,20,15,34,19.60
2012,06,20,15,35,19.70
2012,06,20,15,36,19.80
2012,06,20,15,37,19.90
2012,06,20,15,38,19.90
2012,06,20,15,39,19.90
2012,06,20,15,40,19.90
2012,06,20,15,41,19.90
2012,06,20,15,42,19.90
2012,06,20,15,43,20.00
2012,06,20,15,44,20.10
2012,06,20,15,45,20.10
2012,06,20,15,46,20.00
2012,06,20,15,47,19.90
2012,06,20,15,48,19.80
2012,06,20,15,49,19.80
2012,06,20,15,50,19.70
2012,06,20,15,51,19.70
2012,06,20,15,52,19.50
2012,06,20,15,53,19.40
2012,06,20,15,54,19.30
2012,06,20,15,55,19.20
2012,06,20,15,56,19.10
2012,06,20,15,57,19.00
2012,06,20,15,58,19.00
2012,06,20,15,59,18.90
2012,06,20,16,00,18.80
2012,06,20,16,01,18.80
2012,06,20,16,02,18.70
2012,06,20,16,03,18.70
2012,06,20,16,04,18.50
2012,06,20,16,05,18.30
2012,06,20,16,06,18.00
2012,06,20,16,07,17.80
2012,06,20,16,08,17.70
2012,06,20,16,09,17.60
2012,06,20,16,10,17.50
2012,06,20,16,11,17.50
2012,06,20,16,12,17.50
2012,06,20,16,13,17.50
2012,06,20,16,14,17.50
2012,06,20,16,15,17.50
2012,06,20,16,16,17.50
2012,06,20,16,17,17.50
2012,06,20,16,18,17.50
2012,06,20,16,19,17.50
2012,06,20,16,20,17.50
2012,06,20,16,21,17.60
2012,06,20,16,22,17.70
2012,06,20,16,23,17.70
2012,06,20,16,24,17.80
2012,06,20,16,25,17.90
2012,06,20,16,26,18.00
2012,06,20,16,27,18.10
2012,06,20,16,28,18.20
2012,06,20,16,29,18.30
2012,06,20,16,30,18.40
2012,06,20,16,31,18.50
2012,06,20,16,32,18.60
2012,06,20,16,33,18.60
2012,06,20,16,34,18.70
2012,06,20,16,35,18.70
2012,06,20,16,36,18.70
2012,06,20,16,37,18.70
2012,06,20,16,38,18.70
2012,06,20,16,39,18.80
2012,06,20,16,40,18.80
2012,06,20,16,41,18.80
2012,06,20,16,42,18.80
2012,06,20,16,43,18.80
2012,06,20,16,44,18.80
2012,06,20,16,45,18.70
2012,06,20,16,46,18.70
2012,06,20,16,47,18.70
2012,06,20,16,48,18.60
2012,06,20,16,49,18.60
2012,06,20,16,50,18.60
2012,06,20,16,51,18.50
2012,06,20,16,52,18.50
2012,06,20,16,53,18.40
2012,06,20,16,54,18.40
2012,06,20,16,55,18.30
2012,06,20,16,56,18.30
2012,06,20,16,57,18.30
2012,06,20,16,58,18.30
2012,06,20,16,59,18.30
2012,06,20,17,00,18.30
2012,06,20,17,01,18.30
2012,06,20,17,02,18.30
2012,06,20,17,03,18.30
2012,06,20,17,04,18.30
2012,06,20,17,05,18.30
2012,06,20,17,06,18.30
2012,06,20,17,07,18.30
2012,06,20,17,08,18.40
2012,06,20,17,09,18.40
2012,06,20,17,10,18.40
2012,06,20,17,11,18.40
2012,06,20,17,12,18.40
2012,06,20,17,13,18.40
2012,06,20,17,14,18.40
2012,06,20,17,15,18.40
2012,06,20,17,16,18.50
2012,06,20,17,17,18.50
2012,06,20,17,18,18.60
2012,06,20,17,19,18.60
2012,06,20,17,20,18.60
2012,06,20,17,21,18.60
2012,06,20,17,22,18.70
2012,06,20,17,23,18.70
2012,06,20,17,24,18.70
2012,06,20,17,25,18.80
2012,06,20,17,26,18.80